Tracking 29892 objects as of 21-Nov-2024
HD Live streaming from Space Station
objects crossing your sky now

STARLINK-6263

Track STARLINK-6263 now!
10-day predictions
STARLINK-6263 is classified as:


NORAD ID: 56549
Int'l Code: 2023-065AY
Perigee: 565.7 km
Apogee: 566.9 km
Inclination: 43.0 °
Period: 95.8 minutes
Semi major axis: 6937 km
RCS: Unknown
Launch date: May 14, 2023
Source: United States (US)
Launch site: AIR FORCE EASTERN TEST RANGE (AFETR)
Your satellite tracking list
Your tracking list is empty




NASA's NSSDC Master Catalog

Two Line Element Set (TLE):
1 56549U 23065AY  24325.93543808  .00003819  00000-0  29782-3 0  9993
2 56549  43.0021 277.2727 0000852 268.1295  91.9450 15.02511141 84431
Source of the keplerian elements: AFSPC